Location: Chaumontel
(49.1247°N, 2.4324°E)
Time: 22:39:41
(UTC+00:00)

USA 290 - Pass Details

Date: 03 February 2023
Orbit: 401 x 409 km, 73.6° (Epoch: 13 March)

Event Time Altitude Azimuth Distance (km) Brightness Sun altitude
Rises 17:27:37 0° 212° (SSW) 2,340 6.9 -6.6°
Reaches altitude 10° 17:29:40 10° 216° (SW) 1,485 5.9 -6.9°
Maximum altitude 17:32:53 56° 297° (WNW) 500 2.9 -7.4°
Drops below altitude 10° 17:36:09 10° 17° (NNE) 1,506 4.7 -7.9°
Enters shadow 17:38:16 - 21° (NNE) 2,387 5.7 -8.2°
